カタログに戻る

COSMOS 1375 DEB

運用中LEO
NORAD 17802·DEBRIS·🇷🇺 Russia

打ち上げ Jun 6, 1982 から Plesetsk Cosmodrome

Loading…

次のパス (今後24時間)

TLE

最新Source: Space-Track

元期: Sep 14, 2026, 10:35 UTC

1 17802U 82055AU  26257.44153073  .00000158  00000-0  23817-3 0  9995
2 17802  65.8317 263.8578 0048960 261.9805 170.7872 13.77476433 50368

AllMySatでCOSMOS 1375 DEBをリアルタイム追跡

Download on the App Store